SL-16 DEB, 22344

Orbit data source: Space-Track

SL-16 DEB, 22344 is space debris in LEO originally from a launch on Fri, 25 Dec 1992 UTC launched from the Tyuratam Missile And Space Complex (TTMTR). Debris objects in space refer to the collection of defunct objects orbiting the Earth. Examples of debris include non-operational satellites, rocket bodies, and fragments generated from explosions, collisions, or faulty payload assembly.

Loading next visibility...
Identifier
22344, 1992-093AH
Orbit
LEO
Country
Flag of CISCIS
Related business
Manufacturer
Unknown
Mission
Spacecraft
Bus & Motor
Unknown
Mass
Unknown
Launch date (UTC)
1992-12-25 (33 years ago)
Launch vehicle
Unknown
Launch site
Tyuratam Missile And Space Complex (TTMTR)
Object type
Payload
Rocket body
Debris
Shape & HBR
Unknown
Radar Cross Section
Small (<0.1 m²)

Expand to show TLE details & history
Last TLE update: 1 day ago

TLE from 1 day ago
0 SL-16 DEB
1 22344U 92093AH  25241.89268657  .00001744  00000-0  93582-3 0  9999
2 22344  71.0949  49.3876 0101205 259.6023  99.3679 14.11766560668123
Epoch: 2025-08-29T21:25Z
TLE epoch observation values (Epoch: 2025-08-29T21:25:28.119Z)
Latitude
-0.00009°
Longitude
109.68559°
Altitude
868.369 km
Speed
7.412 km/s
True Right ascension
03h 17m 33s
True Declination
0° 00' 00"
Sunlit
Object was in daylight at epoch
Visualization orbit readout
Latitude
Unknown
Longitude
Unknown
Altitude
Unknown
Speed
Unknown
Apparent Right ascension
Unknown
Apparent Declination
Unknown
Sunlit
N/A
Visualization observer readout
Local Sidereal Time
16:02:56
Azimuth
Unknown
Elevation
Unknown
Doppler factor
Unknown
Orbital elements
Apogee altitude
924.416 km
Perigee altitude
778.086 km
Semi-major axis
7,229.388 km
Eccentricity
0.01012
Inclination
71.0949°
RAAN
49.3876°
Arg. of periapsis
259.6023°
True anomaly
100.50973°
Mean anomaly
99.3679°
Eccentric anomaly
99.93906°
Mean motion
3.53094 °/min
Orbital period
101.96 mins
BSTAR
0.00093582
Loading maneuver chart data...
Computing Atmospheric mass density...
Loading historical data...
Loading historical data...
Loading historical data...
Loading historical data...
Loading historical data...
Loading historical data...
Loading historical data...

Documentation

Showing up to 5 results
|